Theta_e
326 319 319 314 300 299 296 301 310 311 308 309 312 312 318 323 321 314 335 340 345 349 356 363 365 366 365 364 363 362 362 362 362 362 361 361 361 361 361 360 359 354 351 347 344 343 341 339 338
322 321 317 306 298 295 299 309 308 309 308 311 312 313 318 317 329 332 334 343 346 350 353 358 365 365 365 364 363 362 362 362 362 362 362 361 361 361 360 359 358 354 350 346 344 342 340 339 338
320 321 308 299 298 296 301 311 309 310 311 311 309 315 318 320 327 330 339 343 346 349 349 358 364 364 365 364 363 362 362 362 362 362 362 361 361 360 359 359 357 354 351 346 344 342 341 340 338
316 312 309 296 295 305 308 312 313 314 310 312 311 312 321 326 326 332 341 343 345 346 347 360 363 364 364 364 364 363 362 362 362 362 362 361 361 360 359 359 358 356 351 346 345 344 343 342 340
309 306 297 295 297 303 311 314 314 311 309 310 311 312 316 321 328 337 338 342 343 343 350 357 362 364 364 364 364 363 363 362 361 362 362 362 361 359 358 358 357 356 354 350 347 346 345 344 343
302 305 294 293 299 306 308 315 312 313 314 312 312 313 314 320 320 332 339 336 342 341 351 354 361 362 363 363 363 362 361 361 361 361 361 361 360 359 358 358 357 356 354 351 350 348 347 346 345
299 298 296 298 300 303 307 316 313 313 312 310 313 311 313 316 319 326 336 336 340 343 350 351 355 360 362 361 361 361 360 361 361 360 360 360 360 358 358 357 357 356 354 352 351 349 348 348 347
304 300 297 299 299 301 308 312 316 313 312 317 318 310 308 313 318 321 329 330 341 348 349 349 352 354 354 357 361 360 360 360 360 360 360 359 359 358 357 355 355 356 355 354 353 351 349 348 347
305 296 295 298 300 303 309 306 311 316 314 316 317 318 317 318 318 318 318 331 347 349 347 347 349 350 350 352 357 359 361 360 360 359 359 356 351 352 352 354 354 356 355 355 353 352 350 349 348
299 294 297 305 306 305 308 308 309 308 309 312 315 319 321 318 317 316 315 326 332 345 344 345 346 347 346 353 352 351 354 354 352 352 353 349 346 346 349 352 355 356 355 354 353 352 351 349 340
301 297 301 303 307 309 308 309 311 306 303 309 310 315 319 315 315 315 314 325 331 329 338 342 344 345 344 346 351 349 349 348 348 347 349 346 345 342 348 343 347 346 352 346 349 348 346 341 337
296 302 304 304 306 305 304 307 306 307 306 312 313 318 317 313 313 315 314 322 326 327 328 337 342 344 343 347 349 347 347 345 345 345 346 345 341 338 339 341 341 343 343 342 338 340 340 338 335
298 300 304 305 305 305 306 304 305 306 314 316 316 317 315 314 313 316 320 322 323 327 327 332 342 342 342 349 348 343 343 345 346 345 346 348 343 341 342 341 342 342 342 342 340 338 336 336 335
299 300 301 302 301 302 302 303 303 307 315 316 316 314 314 315 315 315 318 318 323 324 329 331 333 342 346 348 352 350 344 341 344 346 347 347 348 344 343 342 343 342 343 343 342 339 336 337 337
300 295 299 300 300 299 302 298 300 307 312 313 314 313 315 315 316 315 316 318 323 323 325 328 332 339 349 348 349 347 347 344 344 344 346 348 346 345 346 345 341 339 338 337 339 338 336 336 336
295 294 289 297 300 301 299 292 301 305 306 312 313 314 315 313 314 316 318 319 323 324 323 326 332 333 344 348 348 348 346 344 343 343 349 349 349 347 345 345 342 340 339 337 334 331 331 333 332
291 287 290 294 301 300 298 295 301 304 304 303 306 310 313 312 312 316 319 321 324 325 324 326 327 327 329 338 348 348 345 344 344 343 339 346 350 350 347 344 341 342 339 338 334 332 332 330 332
288 288 291 292 298 299 297 297 301 303 303 303 302 303 306 309 310 316 318 321 322 325 325 326 326 327 330 329 335 347 345 345 346 345 343 340 344 350 347 344 342 340 339 335 335 333 333 332 332
294 292 292 295 299 296 295 295 298 301 300 299 300 301 304 306 310 314 318 319 320 321 322 326 325 326 329 328 325 331 342 342 343 344 346 346 343 345 347 343 340 343 338 335 334 333 332 331 337
294 292 291 295 298 297 295 295 297 299 298 299 300 301 305 305 309 314 314 314 316 320 320 321 324 324 326 328 329 329 330 331 338 339 336 345 346 345 344 344 341 339 337 337 334 333 333 335 338
293 291 292 292 296 297 294 292 294 299 300 301 302 302 304 306 306 310 312 312 313 316 316 321 322 323 322 325 326 329 331 329 328 326 327 329 338 346 345 343 342 341 338 337 337 336 332 327 334
289 296 296 294 291 285 294 284 291 296 297 300 302 302 302 304 307 310 312 312 312 315 317 318 320 322 325 325 324 324 324 323 326 326 328 331 336 345 346 345 345 343 342 340 337 336 337 337 334
292 297 294 294 289 287 289 284 289 294 294 297 299 302 301 304 307 308 311 313 314 315 315 319 320 321 322 324 324 323 322 325 327 325 326 329 331 333 337 347 345 345 344 343 338 338 337 339 336
299 294 292 290 286 282 287 286 287 291 294 297 301 301 303 303 306 309 311 311 310 312 313 319 317 317 319 319 320 320 322 323 324 324 325 326 327 327 329 336 346 345 345 343 343 338 339 340 338
293 285 278 277 278 280 290 287 289 296 299 300 301 300 301 305 306 307 306 308 309 308 310 314 315 315 319 317 318 320 320 323 324 325 325 325 325 325 326 328 336 346 347 346 343 342 339 337 338
291 288 283 277 277 281 291 286 289 300 300 303 303 301 302 304 306 306 307 308 308 309 310 313 315 315 319 320 319 321 321 322 320 321 323 324 326 326 329 332 332 332 347 348 346 345 342 341 340
291 287 290 287 288 282 284 289 294 300 301 301 301 301 300 301 304 304 305 306 305 305 308 312 313 315 317 315 316 315 319 319 320 320 321 322 324 329 330 329 327 326 334 347 348 346 345 343 343
294 296 285 287 278 276 283 284 285 294 296 299 299 296 297 300 301 302 304 305 306 306 308 310 312 312 314 316 317 318 318 320 320 320 321 322 323 325 326 328 331 331 330 330 337 347 347 345 345
289 289 290 290 286 278 277 281 293 292 296 297 299 301 298 299 300 302 303 304 305 307 308 310 310 311 313 315 316 317 318 315 315 316 319 319 320 322 327 331 331 332 333 333 330 334 344 346 346
297 291 292 285 282 287 283 283 297 295 296 297 299 301 303 302 302 301 303 303 304 305 306 307 308 309 310 314 315 314 313 314 314 312 313 317 319 322 322 323 326 329 331 333 332 332 342 346 345
Wind_Speed
8 12 3 2 4 3 5 10 7 17 1 2 6 9 20 18 8 5 5 16 22 17 10 12 19 21 18 17 16 16 16 16 15 15 15 13 13 14 14 12 11 12 10 9 8 8 7 6 6
5 8 2 2 3 1 7 17 6 6 1 6 5 10 15 11 10 8 7 13 18 17 11 9 18 21 19 17 16 16 16 16 15 15 15 13 13 13 13 12 11 12 10 8 8 7 6 5 4
7 6 2 4 4 6 7 5 7 6 7 9 5 5 7 7 8 5 13 16 18 15 11 9 17 20 20 18 15 15 15 15 15 15 14 13 13 12 12 11 10 10 10 8 9 7 6 4 3
5 5 4 2 8 11 18 11 13 20 6 5 5 10 7 7 5 6 17 17 15 15 11 12 13 19 21 21 17 15 14 14 14 14 13 13 13 12 11 10 10 10 9 8 8 7 5 5 2
2 2 1 3 8 10 14 5 5 12 9 11 4 9 9 5 7 10 5 16 18 15 13 13 11 14 19 21 21 17 15 14 13 12 12 12 11 10 10 9 8 7 8 8 8 7 5 4 4
3 3 1 3 9 13 7 13 6 15 12 10 9 6 5 3 9 3 6 5 17 19 15 15 14 11 16 19 20 19 16 14 13 13 11 11 11 10 9 9 8 7 7 6 6 6 5 5 5
3 1 6 9 14 16 10 20 8 24 19 2 3 5 4 9 9 5 5 6 22 17 16 15 12 12 14 17 17 19 19 16 14 13 13 11 10 9 8 8 8 7 7 7 7 7 7 6 6
2 2 5 7 9 15 9 10 24 8 15 9 3 3 4 4 11 16 8 1 17 15 14 16 13 10 7 8 16 16 17 17 16 14 13 13 12 10 9 8 8 9 9 8 8 8 7 7 9
5 3 6 8 10 13 16 7 7 15 18 13 5 1 7 8 13 17 18 5 14 11 13 14 14 11 8 5 10 14 15 15 15 14 14 12 6 7 8 9 11 11 10 9 8 8 9 11 10
5 7 13 10 13 16 20 10 8 4 7 7 1 7 6 10 10 12 13 10 9 4 11 14 15 13 10 9 7 6 9 6 6 6 7 5 6 6 9 10 15 14 13 11 10 10 11 11 5
11 13 11 12 16 19 22 22 10 8 5 7 5 9 3 12 11 11 7 6 8 6 2 10 17 15 13 9 7 4 4 4 5 7 7 5 5 4 5 4 5 4 9 4 6 6 6 7 6
10 16 17 18 20 18 15 11 16 9 9 10 10 4 3 10 8 7 6 7 7 12 12 6 5 17 15 8 8 7 7 6 5 6 8 5 4 5 5 4 5 5 4 6 6 5 7 7 7
12 11 16 17 19 19 16 15 14 8 4 4 4 5 9 8 7 5 7 7 7 10 9 6 3 5 8 10 6 4 5 7 9 8 8 7 5 5 5 5 5 6 5 6 6 6 7 7 8
8 10 11 11 11 10 10 12 5 18 9 12 10 5 5 9 9 5 8 6 6 9 5 3 5 4 6 7 10 6 5 5 6 7 9 11 7 7 6 5 5 5 5 6 7 7 7 8 8
10 10 11 12 8 7 5 7 14 11 7 11 8 6 8 10 9 9 8 8 8 6 9 2 2 6 1 4 4 6 5 3 6 5 9 12 10 7 7 5 5 5 5 6 5 5 4 4 3
7 7 6 8 9 10 4 12 13 11 8 13 17 23 24 10 11 12 8 9 8 9 9 5 2 6 1 1 1 4 4 4 3 4 7 11 10 8 6 4 4 4 3 3 3 3 3 1 3
5 8 10 11 11 8 8 16 13 11 7 9 9 8 15 13 7 8 9 8 8 7 8 8 5 6 5 6 2 1 5 3 4 2 4 7 9 8 6 5 5 5 4 4 3 3 3 3 1
8 7 8 14 14 14 16 21 17 13 13 15 11 8 8 13 9 10 13 10 9 8 7 7 4 1 6 5 5 2 3 4 3 3 4 6 6 10 8 5 6 6 4 5 4 5 4 3 3
15 15 16 12 10 8 8 9 14 10 4 4 6 8 8 10 7 10 9 8 8 5 5 3 5 3 2 2 4 5 3 3 3 4 6 6 6 7 10 7 5 4 6 6 6 4 5 4 3
12 7 8 14 14 15 14 14 9 4 4 5 7 6 10 8 10 14 12 8 7 8 6 3 3 1 4 5 5 6 3 3 4 2 3 4 7 7 7 8 8 7 5 5 6 5 3 4 5
6 7 7 10 15 17 14 13 9 5 2 6 10 8 9 16 15 14 14 12 10 9 9 7 5 3 3 5 5 2 4 3 5 5 4 6 7 7 9 8 6 7 7 7 7 8 8 3 2
4 8 14 13 8 5 5 11 9 7 7 10 17 18 11 11 13 15 14 11 10 8 8 8 8 5 5 5 3 4 3 7 5 5 4 5 4 2 7 8 9 9 5 9 9 7 10 5 6
8 11 8 6 10 6 10 4 9 6 10 16 11 19 13 14 16 17 13 13 9 9 8 8 9 6 4 2 2 3 3 1 2 3 5 7 3 4 6 7 9 10 10 10 10 7 10 9 7
6 6 6 5 4 10 13 6 15 13 12 17 23 13 18 11 11 16 14 11 9 9 9 8 9 7 8 6 6 5 6 6 3 4 3 4 4 5 3 4 9 11 12 10 10 14 9 9 9
7 2 5 5 4 13 14 12 12 8 11 15 22 11 10 15 16 15 12 10 9 9 9 8 9 8 7 8 8 7 7 7 5 5 3 5 5 4 4 5 5 5 9 10 13 11 11 9 10
8 10 7 5 5 6 12 6 9 10 12 18 5 9 10 15 15 14 13 12 9 9 10 9 9 8 8 8 8 7 7 4 3 4 4 5 4 4 3 4 4 6 7 11 10 9 9 10 10
6 8 4 5 2 3 4 12 10 6 8 21 3 8 8 9 11 11 9 9 9 9 10 11 11 11 11 9 7 8 6 7 6 7 6 4 6 5 5 7 8 7 7 6 11 9 11 9 10
8 9 3 3 6 6 7 5 6 2 4 17 6 3 6 7 8 6 7 8 7 8 9 9 10 11 11 9 8 7 8 7 6 5 6 6 6 5 7 9 9 10 9 7 8 8 10 11 10
5 6 3 4 4 5 6 7 2 1 4 7 7 11 4 6 6 5 5 8 9 8 8 9 8 8 8 8 7 7 7 7 6 4 5 5 6 6 7 7 7 8 11 9 9 11 14 12 13
2 4 4 3 6 3 2 12 7 3 5 3 1 5 12 15 9 6 8 7 7 8 8 9 9 9 9 9 9 9 9 7 7 6 6 5 7 8 7 9 10 9 11 13 11 12 14 13 14
Wind_Direction
319 308 295 289 43 100 248 259 259 277 253 357 42 70 78 43 52 100 45 129 131 135 155 156 143 139 142 142 139 134 131 129 128 125 123 125 121 118 116 114 110 108 104 102 99 92 84 75 72
329 302 322 276 119 346 264 244 310 331 144 78 46 58 75 64 66 87 96 128 132 137 143 153 147 142 143 141 138 137 137 136 135 132 132 131 128 125 123 123 126 124 121 123 113 103 96 84 67
289 229 67 165 218 204 244 219 330 4 26 16 34 43 76 128 53 76 115 134 134 135 146 158 154 145 140 135 133 138 139 139 139 137 137 136 135 133 133 135 135 133 133 136 123 118 115 99 71
321 345 321 115 263 256 262 308 355 323 30 59 0 83 63 88 99 121 134 137 138 142 146 153 162 147 141 136 134 139 140 141 141 142 141 142 143 142 141 145 145 145 147 144 134 138 140 136 146
263 302 300 252 252 263 269 287 330 312 319 6 36 56 83 46 92 120 109 152 146 153 139 147 157 151 142 140 139 141 143 140 137 141 146 147 147 146 145 149 150 156 158 154 153 157 166 176 194
305 127 316 269 271 261 268 287 11 319 303 9 14 82 59 34 34 89 137 162 160 154 146 148 146 150 146 143 142 141 140 141 143 144 148 150 148 151 155 159 160 168 172 169 167 173 191 203 224
193 355 244 253 264 276 279 175 239 289 294 304 26 74 327 28 4 28 133 215 158 148 145 142 142 143 151 145 146 145 145 147 150 149 149 152 153 156 163 171 172 181 189 189 190 189 199 219 242
205 131 273 264 279 284 282 172 180 186 285 264 69 86 4 353 29 24 332 86 142 136 141 142 140 137 131 148 145 147 148 151 152 153 156 156 157 163 175 183 191 197 203 199 200 201 201 215 230
248 226 236 249 266 275 293 319 231 171 207 271 160 162 100 47 25 25 2 340 132 138 141 143 141 142 132 128 151 147 152 151 153 159 163 159 159 172 191 191 208 209 212 208 204 209 209 214 222
198 235 236 231 255 270 277 273 255 291 177 215 303 242 128 80 50 30 26 342 76 89 157 151 144 148 149 160 154 148 157 158 158 163 167 171 179 184 194 198 209 211 212 210 206 210 222 218 210
236 240 249 255 243 242 263 276 274 162 201 167 194 282 317 62 68 37 24 62 77 75 197 185 151 153 158 161 162 167 158 163 177 171 171 187 197 206 203 201 207 202 216 202 203 224 225 216 216
230 234 239 252 258 263 262 279 290 209 192 177 210 98 70 94 90 72 15 9 71 67 29 13 195 156 167 142 163 178 170 174 181 188 177 176 192 207 216 201 189 189 193 202 212 216 226 229 228
249 248 246 246 245 259 266 267 272 265 170 51 176 174 145 130 138 120 89 61 28 74 66 6 65 187 144 140 134 177 197 184 179 184 188 176 184 202 210 204 181 190 190 201 215 220 220 225 220
260 272 263 260 251 244 241 267 261 268 189 213 170 221 205 165 174 175 124 114 92 89 41 340 51 24 173 143 146 148 189 194 188 185 193 191 184 200 207 214 196 186 202 203 218 215 215 225 213
277 292 297 286 278 271 280 295 272 278 217 181 155 194 229 172 186 192 172 150 130 111 123 86 291 42 65 100 122 126 148 169 188 190 195 192 196 193 195 205 227 211 197 208 221 248 252 255 260
319 305 279 287 283 276 223 259 271 282 252 184 200 199 212 216 192 193 173 149 147 137 120 102 51 62 43 158 204 150 201 147 249 154 181 200 195 189 194 191 220 227 236 247 255 217 262 308 250
267 257 274 276 248 245 220 252 242 247 256 266 201 205 198 215 209 163 142 140 144 135 139 135 138 126 55 1 3 338 231 192 194 239 190 188 198 197 183 189 196 203 223 225 227 238 202 234 272
259 253 251 250 259 253 240 246 240 223 215 235 252 229 226 196 170 148 147 146 145 137 140 128 124 26 135 88 320 230 235 219 191 208 232 233 194 197 203 195 199 203 211 244 204 197 219 214 197
249 262 274 293 315 329 290 294 252 220 167 231 247 242 238 183 145 121 117 128 114 69 59 110 123 336 319 122 106 330 243 310 243 210 219 209 233 204 198 201 191 190 212 219 216 180 195 265 223
284 307 308 315 318 308 297 287 279 220 204 234 257 239 165 160 132 139 133 127 132 143 139 104 92 82 317 320 169 147 256 286 277 210 214 220 226 207 190 199 203 196 225 226 222 181 198 222 147
290 300 295 269 280 284 292 294 281 252 277 293 273 222 211 179 163 158 150 153 154 143 143 161 168 183 256 278 311 126 126 9 325 272 224 213 207 203 204 196 205 202 206 224 215 208 211 237 303
281 276 283 289 306 254 324 286 293 300 269 250 253 250 217 191 172 163 157 160 157 165 152 150 154 183 223 217 187 284 221 150 195 265 273 206 149 235 215 182 201 221 194 231 220 213 224 147 206
265 270 274 326 315 323 289 304 281 284 280 279 266 244 213 195 171 169 154 146 158 147 158 163 169 178 193 211 268 302 289 308 160 245 314 318 353 73 358 300 237 221 210 222 213 218 216 211 221
291 317 331 326 306 282 271 244 278 273 274 273 277 263 224 148 124 131 134 136 147 160 166 155 167 181 187 197 213 207 235 246 258 281 309 309 311 296 134 262 234 231 220 205 215 223 208 196 214
219 346 312 304 275 253 257 258 244 307 295 282 272 235 137 129 126 132 143 152 169 179 177 176 180 200 203 206 209 218 221 235 198 245 226 249 263 262 233 239 250 243 239 219 218 215 221 209 222
225 189 208 250 232 268 310 247 239 255 299 306 324 108 117 125 133 145 161 169 175 184 189 188 179 191 203 211 225 225 243 227 248 248 236 224 235 254 297 275 248 269 251 229 215 216 223 222 230
307 257 263 305 31 339 268 284 290 287 5 325 96 127 132 141 151 165 168 158 166 175 183 184 186 200 199 202 205 226 231 223 223 239 251 275 297 300 280 273 277 260 267 246 220 213 227 223 229
172 222 300 92 221 231 229 251 250 303 308 216 316 101 113 115 120 133 151 175 193 193 202 190 185 192 197 196 200 207 217 228 234 240 247 248 260 260 271 275 274 281 268 248 265 239 229 231 232
295 271 313 310 249 196 274 250 140 10 13 85 94 278 126 147 157 176 220 209 203 209 189 194 193 189 199 203 201 197 203 202 208 220 259 269 263 250 252 257 264 263 274 269 250 260 253 229 233
191 187 87 261 277 307 317 260 359 344 322 69 172 29 353 357 332 269 214 208 204 197 195 187 191 185 194 190 188 195 202 201 203 224 245 260 279 270 253 261 261 265 273 274 263 258 256 243 235